Miscellaneous Local Product
Issued by NWS Hastings, NE

Home | Current Version | Previous Version | Text Only | Print | Product List | Glossary On
Versions: 1 2 3 4 5 6 7 8 9 10 11 12 13 14 15 16 17 18 19 20 21 22 23 24 25 26 27 28 29 30 31 32 33 34 35 36 37 38 39 40 41 42 43 44 45 46 47 48 49 50
000
AXUS43 KGID 241102
MISGRI

GID CWA HOURLY WEATHER ROUNDUP
NATIONAL WEATHER SERVICE HASTINGS NE
500 AM CST FRI FEB 24 2017

NOTE: "FAIR" INDICATES FEW OR NO CLOUDS BELOW 12,000 FEET WITH NO
SIGNIFICANT WEATHER AND/OR OBSTRUCTIONS TO VISIBILITY.

...SOUTH CENTRAL NEBRASKA...

CITY           SKY/WX    TMP DP  RH WIND       PRES   REMARKS
GRAND ISLAND   LGT SNOW  25  24  96 N17       29.76R FOG     WCI  12
HASTINGS       LGT SNOW  27  24  89 N24       29.75R FOG     WCI  12
KEARNEY        CLOUDY    27  21  80 N16G23    29.78R WCI  14
ORD            FOG       23  19  85 N22G35    29.81R VSB 3/4 WCI   8
YORK           LGT SNOW  28  28 100 N23G31    29.71R WCI  14
AURORA         LGT SNOW  27  25  94 N18G24    29.74R WCI  14
LEXINGTON      LGT SNOW  25  21  87 N28G33    29.80R WCI   8
HOLDREGE       LGT SNOW  25  23  92 N12       29.77S WCI  14
HEBRON         CLOUDY    30  28  93 N14G20    29.70R FOG     WCI  20

...NEBRASKA PANHANDLE...

CITY           SKY/WX    TMP DP  RH WIND       PRES   REMARKS
CHADRON        LGT SNOW  22  19  89 N5        29.97S FOG     WCI  16
ALLIANCE       CLOUDY    19  16  88 N16       29.90R FOG     WCI   4
SCOTTSBLUFF    CLOUDY    21  15  78 N13       29.92R WCI   9
SIDNEY         LGT SNOW  19  17  92 N13       29.88R FOG     WCI   6

...WESTERN AND NORTH CENTRAL NEBRASKA...

CITY           SKY/WX    TMP DP  RH WIND       PRES   REMARKS
VALENTINE      CLOUDY    22  18  85 N20       29.94R FOG     WCI   7
AINSWORTH      LGT SNOW  22  20  95 N28G35    29.91R WCI   4
ONEILL         CLOUDY    22  20  93 N28G33    29.88R WCI   4
BROKEN BOW     FOG       23  21  92 N24G32    29.81R VSB 3/4 WCI   7
IMPERIAL       LGT SNOW  22  18  85 N23       29.86R FOG     WCI   6
NORTH PLATTE   CLOUDY    24  20  84 N18G24    29.84R FOG     WCI  10
MCCOOK         LGT SNOW  24  21  88 N18G29    29.81F FOG     WCI  10

...EASTERN NEBRASKA...

CITY           SKY/WX    TMP DP  RH WIND       PRES   REMARKS
NORFOLK        FOG       25  22  88 N18G30    29.76R VSB 1   WCI  11
SO SIOUX CITY  FOG       28  25  88 N24G36    29.75R VSB 1/4 WCI  14
TEKAMAH        LGT SNOW  29  26  89 N31       29.69R FOG     WCI  13
COLUMBUS       CLOUDY    27  21  80 N23G30    29.73R WCI  12
ALBION         CLOUDY    26  21  83 N21G30    29.78R WCI  11
OMAHA EPPLEY   LGT SNOW  32  28  85 N20       29.65R VSB 1   WCI  20
OFFUTT AFB     FLURRIES  32  29  90 N13G20    29.63R WCI  22
MILLARD        LGT SNOW  33  32  93 N7G23     29.66R WCI  27
LINCOLN        LGT SNOW  31  29  92 N21G26    29.69R FOG     WCI  18
NEBRASKA CITY  CLOUDY    34  34 100 N14G21    29.61R FOG     WCI  24
BEATRICE       LGT RAIN  33  32  99 N14       29.65S WCI  23
FALLS CITY     CLOUDY    36  33  89 NW12      29.59R WCI  28

...NORTHERN KANSAS...

CITY           SKY/WX    TMP DP  RH WIND       PRES   REMARKS
GOODLAND       CLOUDY    20  18  92 NW16      29.81R WCI   6
HILL CITY      CLOUDY    27  24  89 N18G25    29.81R WCI  14
NORTON         FLURRIES  25  19  80 NW17G23   29.78R WCI  11
PHILLIPSBURG   CLOUDY    28  27  93 NW17G23   29.79S WCI  16
SMITH CENTER   CLOUDY    27  25  93 N16G23    29.76S WCI  14
HAYS           CLOUDY    29  24  82 N17G26    29.79R WCI  17
RUSSELL        CLOUDY    30  25  81 NW21      29.75R WCI  17
CONCORDIA      CLOUDY    31  29  92 NW20G30   29.70R WCI  19
SALINA         CLOUDY    36  28  73 NW22      29.71R WCI  25
TOPEKA         CLOUDY    38  35  89 W14G21    29.61R WCI  30



USA.gov is the U.S. government's official web portal to all federal, state and local government web resources and services.